Flag for United Arab Emirates Weather past 2 weeks in Dubai, Dubai, United Arab Emirates

Now
75 °F

Sunny.


Feels Like: 76 °F
Forecast: 72 / 82 °F
Wind: 7 mph from South

Location: Dubai International Airport

Current Time: Mar 27, 2015 at 8:22:55 AM

Latest Report: Mar 27, 2015 at 8:00 AM


Visibility: 10 mi

Pressure: 30.01 "Hg

Humidity: 78%

Dew point: 68 °F

Location of DubaiLocation

Historic Weather in Dubai — Graph

°F

Dubai temperature yesterday

Maximum temperature yesterday: 86 °F (at 2:00 PM)
Minimum temperature yesterday: 70 °F (at 6:00 AM)
Average temperature yesterday: 78 °F

Past Weeks' High & Low Weather Summary

 TemperatureHumidityPressure
High95 °F (Mar 21, 3:00 PM)89% (Mar 24, 2:00 AM)30.09 "Hg (Mar 24, 2:00 AM)
Low64 °F (Mar 14, 7:00 AM)11% (Mar 21, 3:00 PM)29.86 "Hg (Mar 19, 4:00 PM)
Average78 °F51%29.97 "Hg
* Reported Mar 12 7:00 AM — Mar 27 7:00 AM, Dubai, Weather by CustomWeather, © 2015

Note: Actual official high and low records may vary slightly from our data, if they occured in-between our weather recording intervals... More about our weather records

Advertising

Dubai weather history for previous 24 hours

 ConditionsComfort  
Time TempWeatherWind HumidityBarometerVisibility
7:00 AM
Fri, Mar 27
73 °FPassing clouds.5 mph74%29.98 "HgN/A
6:00 AM73 °FClear.6 mph74%29.98 "Hg10 mi
5:00 AM75 °FPassing clouds.5 mph69%29.95 "HgN/A
4:00 AM75 °FPassing clouds.6 mph61%29.95 "HgN/A
3:00 AM75 °FClear.8 mph61%29.95 "Hg10 mi
2:00 AM75 °FPassing clouds.6 mph61%29.95 "HgN/A
1:00 AM75 °FClear.7 mph65%29.92 "Hg10 mi
12:00 AM75 °FClear.5 mph65%29.95 "Hg10 mi
11:00 PM
Thu, Mar 26
77 °FClear.7 mph61%29.95 "Hg10 mi
10:00 PM77 °FClear.2 mph57%29.98 "Hg10 mi
9:00 PM77 °FPassing clouds.7 mph61%30.01 "HgN/A
8:00 PM79 °FClear.10 mph54%29.98 "Hg10 mi
7:00 PM79 °FClear.13 mph54%29.95 "Hg10 mi
6:00 PM79 °FSunny.15 mph58%29.95 "Hg10 mi
5:00 PM81 °FSunny.16 mph51%29.95 "Hg10 mi
4:00 PM84 °FPassing clouds.14 mph43%29.92 "HgN/A
3:00 PM86 °FPassing clouds.9 mph33%29.92 "HgN/A
2:00 PM86 °FPassing clouds.9 mph35%29.95 "HgN/A
1:00 PM84 °FSunny.13 mph33%29.98 "Hg10 mi
12:00 PM84 °FPassing clouds.12 mph37%29.98 "HgN/A
11:00 AM84 °FPassing clouds.8 mph35%30.01 "HgN/A
10:00 AM82 °FPassing clouds.7 mph42%30.01 "HgN/A
9:00 AM77 °FPassing clouds.3 mph65%30.01 "HgN/A
8:00 AM73 °FSunny.6 mph74%29.98 "Hg10 mi
Weather by CustomWeather, © 2015

See weather overviewHow to use our weather pages